Boulder City, NV

12:53 AM PST on November 20, 2019 (GMT -0800)
Boulder City

Weather History for KBVU - September, 2019

Change the Weather History Date:

Sunday, September 1, 2019

  Actual Average (WUND) Record (WUND)
Temperature  
Mean Temperature 89 °F -  
Max Temperature 105 °F - - (-1)
Min Temperature 73 °F - - (-1)
Cooling Degree Days 24    
Growing Degree Days 39 (Base 50)    
Moisture  
Dew Point 40 °F    
Average Humidity 17    
Maximum Humidity 28    
Minimum Humidity 12    
Precipitation  
Precipitation 0.00 in - - ()
Sea Level Pressure  
Sea Level Pressure 29.91 in    
Wind  
Wind Speed 4 mph ()    
Max Wind Speed 29 mph    
Max Gust Speed 39 mph    
Visibility 10.0 miles    
Events      
Averages and records for this station are not official NWS values.
T = Trace of Precipitation, MM = Missing Value Source: Averaged Metar Reports

Daily Weather History Graph

Daily Weather History Graph

Search for Another Location

Airport or City:

Astronomy

Sep. 01, 2019 Rise Set
Actual Time 6:11 AM PDT 7:07 PM PDT
Civil Twilight 5:44 AM PDT 7:33 PM PDT
Nautical Twilight 5:13 AM PDT 8:04 PM PDT
Astronomical Twilight 4:41 AM PDT 8:36 PM PDT
Moon 8:42 AM PDT (9/1) 9:02 PM PDT (9/1)
Length of Visible Light 13h 48m
Length of Day
12h 55m
Waxing Crescent, 8% of the Moon is Illuminated
Sep 1
Waxing Crescent
Sep 5
First Quarter
Sep 13
Full
Sep 21
Last Quarter
Sep 28
New

Hourly Weather History & Observations

Time (PDT) Temp. Heat Index Dew Point Humidity Pressure Visibility Wind Dir Wind Speed Gust Speed Precip Events Conditions
12:15 AM 80.6 °F - 28.4 °F 15% 29.88 in 10.0 mi NNW 4.6 mph - N/A   Clear
12:35 AM 80.6 °F - 28.4 °F 15% 29.89 in 10.0 mi Calm Calm - N/A   Clear
12:55 AM 80.6 °F - 32.0 °F 17% 29.89 in 10.0 mi Calm Calm - N/A   Clear
1:15 AM 77.0 °F - 30.2 °F 18% 29.89 in 10.0 mi Calm Calm - N/A   Clear
1:35 AM 78.8 °F - 26.6 °F 15% 29.90 in 10.0 mi Calm Calm - N/A   Clear
1:55 AM 77.0 °F - 32.0 °F 19% 29.90 in 10.0 mi Calm Calm - N/A   Clear
2:15 AM 77.0 °F - 30.2 °F 18% 29.90 in 10.0 mi Calm Calm - N/A   Clear
2:35 AM 75.2 °F - 28.4 °F 18% 29.89 in 10.0 mi NNW 3.5 mph - N/A   Partly Cloudy
2:55 AM 75.2 °F - 32.0 °F 21% 29.89 in 10.0 mi Calm Calm - N/A   Partly Cloudy
3:15 AM 75.2 °F - 30.2 °F 19% 29.89 in 10.0 mi Calm Calm - N/A   Partly Cloudy
3:35 AM 75.2 °F - 30.2 °F 19% 29.89 in 10.0 mi Calm Calm - N/A   Partly Cloudy
3:55 AM 75.2 °F - 32.0 °F 21% 29.89 in 10.0 mi Calm Calm - N/A   Partly Cloudy
4:15 AM 75.2 °F - 33.8 °F 22% 29.90 in 10.0 mi ESE 4.6 mph - N/A   Partly Cloudy
4:35 AM 75.2 °F - 32.0 °F 21% 29.91 in 10.0 mi Calm Calm - N/A   Partly Cloudy
4:55 AM 75.2 °F - 30.2 °F 19% 29.91 in 10.0 mi Calm Calm - N/A   Partly Cloudy
5:15 AM 73.4 °F - 32.0 °F 22% 29.91 in 10.0 mi Calm Calm - N/A   Scattered Clouds
5:35 AM 73.4 °F - 32.0 °F 22% 29.92 in 10.0 mi Calm Calm - N/A   Scattered Clouds
5:55 AM 75.2 °F - 24.8 °F 15% 29.92 in 10.0 mi Calm Calm - N/A   Clear
6:15 AM 73.4 °F - 32.0 °F 22% 29.93 in 10.0 mi Calm Calm - N/A   Clear
6:35 AM 75.2 °F - 26.6 °F 17% 29.94 in 10.0 mi Calm Calm - N/A   Clear
6:55 AM 77.0 °F - 30.2 °F 18% 29.95 in 10.0 mi Calm Calm - N/A   Clear
7:15 AM 78.8 °F - 35.6 °F 21% 29.96 in 10.0 mi Calm Calm - N/A   Clear
7:35 AM 82.4 °F - 24.8 °F 12% 29.96 in 10.0 mi Calm Calm - N/A   Clear
7:55 AM 84.2 °F - 35.6 °F 18% 29.97 in 10.0 mi NE 3.5 mph - N/A   Clear
8:15 AM 87.8 °F - 30.2 °F 13% 29.97 in 10.0 mi NE 4.6 mph - N/A   Clear
8:35 AM 89.6 °F - 30.2 °F 12% 29.97 in 10.0 mi NE 4.6 mph - N/A   Clear
8:55 AM 91.4 °F - 32.0 °F 12% 29.98 in 10.0 mi ENE 8.1 mph - N/A   Clear
9:15 AM 93.2 °F - 39.2 °F 15% 29.98 in 10.0 mi Variable 4.6 mph - N/A   Clear
9:35 AM 93.2 °F - 33.8 °F 12% 29.98 in 10.0 mi ESE 4.6 mph - N/A   Clear
9:55 AM 95.0 °F - 35.6 °F 12% 29.98 in 10.0 mi East 4.6 mph - N/A   Clear
10:15 AM 96.8 °F - 37.4 °F 13% 29.98 in 10.0 mi South 8.1 mph - N/A   Clear
10:35 AM 98.6 °F - 41.0 °F 14% 29.98 in 10.0 mi SSE 10.4 mph 20.7 mph N/A   Clear
10:55 AM 98.6 °F - 39.2 °F 13% 29.97 in 10.0 mi SSW 8.1 mph 15.0 mph N/A   Clear
11:15 AM 100.4 °F - 41.0 °F 13% 29.97 in 10.0 mi ESE 8.1 mph - N/A   Clear
11:35 AM 100.4 °F - 42.8 °F 14% 29.96 in 10.0 mi South 6.9 mph - N/A   Clear
11:55 AM 100.4 °F - 42.8 °F 14% 29.96 in 10.0 mi Variable 4.6 mph - N/A   Clear
12:15 PM 102.2 °F - 41.0 °F 12% 29.96 in 10.0 mi SSW 6.9 mph - N/A   Clear
12:55 PM 102.2 °F - 41.0 °F 12% 29.94 in 10.0 mi Variable 4.6 mph - N/A   Clear
1:15 PM 102.2 °F - 41.0 °F 12% 29.93 in 10.0 mi Calm Calm - N/A   Clear
1:35 PM 104.0 °F - 42.8 °F 12% 29.92 in 10.0 mi NNW 6.9 mph - N/A   Clear
1:55 PM 104.0 °F - 44.6 °F 13% 29.92 in 10.0 mi SSE 8.1 mph 16.1 mph N/A   Clear
2:15 PM 105.8 °F - 44.6 °F 13% 29.91 in 10.0 mi East 9.2 mph - N/A   Clear
2:35 PM 104.0 °F - 46.4 °F 14% 29.90 in 10.0 mi SE 13.8 mph - N/A   Clear
2:55 PM 104.0 °F - 46.4 °F 14% 29.88 in 10.0 mi Variable 5.8 mph 15.0 mph N/A   Clear
3:15 PM 105.8 °F - 44.6 °F 13% 29.88 in 10.0 mi South 15.0 mph - N/A   Clear
3:35 PM 105.8 °F - 44.6 °F 13% 29.87 in 10.0 mi SE 13.8 mph 20.7 mph N/A   Clear
3:55 PM 105.8 °F - 44.6 °F 13% 29.86 in 10.0 mi SSE 15.0 mph 21.9 mph N/A   Clear
4:15 PM 105.8 °F - 46.4 °F 14% 29.85 in 10.0 mi SSE 16.1 mph 23.0 mph N/A   Clear
4:35 PM 105.8 °F - 44.6 °F 13% 29.85 in 10.0 mi SSE 13.8 mph - N/A   Clear
4:55 PM 105.8 °F - 44.6 °F 13% 29.85 in 10.0 mi SE 13.8 mph - N/A   Clear
5:15 PM 105.8 °F - 44.6 °F 13% 29.84 in 10.0 mi SE 16.1 mph - N/A   Clear
5:35 PM 105.8 °F - 48.2 °F 14% 29.84 in 10.0 mi SE 13.8 mph 21.9 mph N/A   Clear
5:55 PM 104.0 °F - 46.4 °F 14% 29.84 in 10.0 mi SSE 16.1 mph 21.9 mph N/A   Clear
6:15 PM 104.0 °F - 48.2 °F 15% 29.83 in 10.0 mi SSE 16.1 mph - N/A   Clear
6:35 PM 102.2 °F - 51.8 °F 18% 29.84 in 10.0 mi SSE 17.3 mph - N/A   Clear
6:55 PM 100.4 °F 98.4 °F 53.6 °F 21% 29.84 in 10.0 mi SSE 16.1 mph - N/A   Clear
7:15 PM 100.4 °F 98.4 °F 53.6 °F 21% 29.84 in 10.0 mi South 12.7 mph - N/A   Clear
7:35 PM 98.6 °F 96.4 °F 53.6 °F 22% 29.85 in 10.0 mi SSE 11.5 mph 17.3 mph N/A   Clear
7:55 PM 98.6 °F - 51.8 °F 21% 29.86 in 10.0 mi SSE 13.8 mph - N/A   Clear
8:15 PM 98.6 °F - 51.8 °F 21% 29.87 in 10.0 mi SSE 11.5 mph 18.4 mph N/A   Clear
8:35 PM 96.8 °F - 51.8 °F 22% 29.87 in 10.0 mi SSE 11.5 mph - N/A   Clear
8:55 PM 96.8 °F - 51.8 °F 22% 29.88 in 10.0 mi SSE 8.1 mph - N/A   Clear
9:15 PM 96.8 °F - 51.8 °F 22% 29.88 in 10.0 mi South 6.9 mph - N/A   Clear
9:35 PM 96.8 °F - 46.4 °F 18% 29.89 in 10.0 mi SSW 4.6 mph - N/A   Clear
9:55 PM 95.0 °F - 44.6 °F 18% 29.90 in 10.0 mi SSE 4.6 mph - N/A   Clear
10:15 PM 95.0 °F - 42.8 °F 16% 29.91 in 10.0 mi Calm Calm - N/A   Clear
10:35 PM 95.0 °F - 44.6 °F 18% 29.91 in 10.0 mi Calm Calm - N/A   Clear
10:55 PM 93.2 °F - 44.6 °F 19% 29.92 in 10.0 mi Calm Calm - N/A   Clear
11:15 PM 95.0 °F - 48.2 °F 20% 29.93 in 10.0 mi SSE 15.0 mph - N/A   Clear
11:35 PM 96.8 °F - 51.8 °F 22% 29.94 in 10.0 mi SSE 21.9 mph 28.8 mph N/A   Clear
11:55 PM 95.0 °F 93.7 °F 57.2 °F 28% 29.96 in 9.0 mi SSE 28.8 mph 39.1 mph N/A   Clear